DN1US-13 Weather Reports


time (UTC)temp
F
wind
direction
speed
knots
gust
knots
rain 1hr
in
rain 24hr
in
rain mn
in
humidity
%
barometer
mb
20260507135112 57 0 0.0 0.0 0.00 0.00 0.00 10 990.1
20260507134607 57 0 0.0 0.0 0.00 0.00 0.00 10 990.2
20260507134103 55 0 0.0 0.0 0.00 0.00 0.00 10 990.2
20260507133559 55 0 0.0 0.0 0.00 0.00 0.00 10 990.2
20260507132553 56 0 0.0 0.0 0.00 0.00 0.00 10 990.2
20260507132047 57 0 0.0 0.0 0.00 0.00 0.00 10 990.2
20260507131543 56 0 0.0 0.0 0.00 0.00 0.00 10 990.3
20260507131039 55 0 0.0 0.0 0.00 0.00 0.00 10 990.2
20260507130032 55 0 0.0 0.0 0.00 0.00 0.00 10 990.1
20260507125527 55 0 0.0 0.0 0.00 0.00 0.00 10 990.2
20260507125023 54 0 0.0 0.0 0.00 0.00 0.00 10 990.2
20260507124519 55 0 0.0 0.0 0.00 0.00 0.00 10 990.2
20260507124016 55 0 0.0 0.0 0.00 0.00 0.00 10 990.2
20260507123512 57 0 0.0 0.0 0.00 0.00 0.00 10 990.0
20260507123008 57 0 0.0 0.0 0.00 0.00 0.00 10 990.0
20260507122504 55 0 0.0 0.0 0.00 0.00 0.00 10 989.9
20260507122000 56 0 0.0 0.0 0.00 0.00 0.00 10 989.9
20260507121456 56 0 0.0 0.0 0.00 0.00 0.00 10 989.9
20260507120952 58 0 0.0 0.0 0.00 0.00 0.00 10 989.9
20260507120448 57 0 0.0 0.0 0.00 0.00 0.00 10 989.9
20260507115944 57 0 0.0 0.0 0.00 0.00 0.00 10 990.0
20260507115440 56 0 0.0 0.0 0.00 0.00 0.00 10 989.9
20260507114936 58 0 0.0 0.0 0.00 0.00 0.00 10 989.9
20260507114432 60 0 0.0 0.0 0.00 0.00 0.00 10 989.8
20260507113928 60 0 0.0 0.0 0.00 0.00 0.00 10 989.8
20260507113424 57 0 0.0 0.0 0.00 0.00 0.00 10 990.0
20260507112920 56 0 0.0 0.0 0.00 0.00 0.00 10 990.0
20260507112418 55 0 0.0 0.0 0.00 0.00 0.00 10 990.0
20260507111912 55 0 0.0 0.0 0.00 0.00 0.00 10 990.0
20260507111408 54 0 0.0 0.0 0.00 0.00 0.00 10 990.0
20260507110904 56 0 0.0 0.0 0.00 0.00 0.00 10 990.0
20260507110400 56 0 0.0 0.0 0.00 0.00 0.00 10 990.0
20260507105856 55 0 0.0 0.0 0.00 0.00 0.00 10 990.0
20260507105352 55 0 0.0 0.0 0.00 0.00 0.00 10 989.9
20260507104848 56 0 0.0 0.0 0.00 0.00 0.00 10 990.0
20260507104344 57 0 0.0 0.0 0.00 0.00 0.00 10 990.0
20260507103840 57 0 0.0 0.0 0.00 0.00 0.00 10 990.0
20260507103336 57 0 0.0 0.0 0.00 0.00 0.00 10 990.0
20260507102832 58 0 0.0 0.0 0.00 0.00 0.00 10 990.0
20260507102328 58 0 0.0 0.0 0.00 0.00 0.00 10 990.1
20260507101824 57 0 0.0 0.0 0.00 0.00 0.00 10 990.0
20260507101320 55 0 0.0 0.0 0.00 0.00 0.00 10 990.0
20260507100816 58 0 0.0 0.0 0.00 0.00 0.00 10 990.0
20260507100312 57 0 0.0 0.0 0.00 0.00 0.00 10 990.0
20260507095809 59 0 0.0 0.0 0.00 0.00 0.00 10 990.0
20260507095306 57 0 0.0 0.0 0.00 0.00 0.00 10 990.0
20260507094801 62 0 0.0 0.0 0.00 0.00 0.00 10 990.0
20260507094257 58 0 0.0 0.0 0.00 0.00 0.00 10 990.0
20260507093753 57 0 0.0 0.0 0.00 0.00 0.00 10 990.1
20260507093249 55 0 0.0 0.0 0.00 0.00 0.00 10 990.0
20260507092745 55 0 0.0 0.0 0.00 0.00 0.00 10 990.0
20260507092241 55 0 0.0 0.0 0.00 0.00 0.00 10 989.9
20260507091737 54 0 0.0 0.0 0.00 0.00 0.00 10 989.9
20260507091233 53 0 0.0 0.0 0.00 0.00 0.00 10 989.8
20260507090729 53 0 0.0 0.0 0.00 0.00 0.00 10 989.7
20260507090225 54 0 0.0 0.0 0.00 0.00 0.00 10 989.6
20260507085721 53 0 0.0 0.0 0.00 0.00 0.00 10 989.5
20260507085217 54 0 0.0 0.0 0.00 0.00 0.00 10 989.5
20260507084713 52 0 0.0 0.0 0.00 0.00 0.00 10 989.5
20260507084212 52 0 0.0 0.0 0.00 0.00 0.00 10 989.5
20260507083705 52 0 0.0 0.0 0.00 0.00 0.00 10 989.6
20260507083201 53 0 0.0 0.0 0.00 0.00 0.00 10 989.5
20260507082657 51 0 0.0 0.0 0.00 0.00 0.00 10 989.5
20260507082153 52 0 0.0 0.0 0.00 0.00 0.00 10 989.5
20260507081652 52 0 0.0 0.0 0.00 0.00 0.00 10 989.5
20260507081145 51 0 0.0 0.0 0.00 0.00 0.00 10 989.5
20260507080641 51 0 0.0 0.0 0.00 0.00 0.00 10 989.4
20260507080137 51 0 0.0 0.0 0.00 0.00 0.00 10 989.4
20260507075633 50 0 0.0 0.0 0.00 0.00 0.00 10 989.4
20260507075132 51 0 0.0 0.0 0.00 0.00 0.00 10 989.3
20260507074625 51 0 0.0 0.0 0.00 0.00 0.00 10 989.3
20260507074121 50 0 0.0 0.0 0.00 0.00 0.00 10 989.2
20260507073617 50 0 0.0 0.0 0.00 0.00 0.00 10 989.2
20260507073113 50 0 0.0 0.0 0.00 0.00 0.00 10 989.2
20260507072612 49 0 0.0 0.0 0.00 0.00 0.00 10 989.1
20260507072105 49 0 0.0 0.0 0.00 0.00 0.00 10 989.0
20260507071601 50 0 0.0 0.0 0.00 0.00 0.00 10 989.0
20260507071058 50 0 0.0 0.0 0.00 0.00 0.00 10 988.9
20260507070554 50 0 0.0 0.0 0.00 0.00 0.00 10 988.9
20260507070052 50 0 0.0 0.0 0.00 0.00 0.00 10 988.8
20260507065546 49 0 0.0 0.0 0.00 0.00 0.00 10 988.9
20260507065042 49 0 0.0 0.0 0.00 0.00 0.00 10 988.8
20260507064538 49 0 0.0 0.0 0.00 0.00 0.00 10 988.8
20260507064034 48 0 0.0 0.0 0.00 0.00 0.00 10 988.8
20260507063532 48 0 0.0 0.0 0.00 0.00 0.00 10 988.8
20260507063026 48 0 0.0 0.0 0.00 0.00 0.00 10 988.7
20260507062522 48 0 0.0 0.0 0.00 0.00 0.00 10 988.7
20260507062018 48 0 0.0 0.0 0.00 0.00 0.00 10 988.7
20260507061514 48 0 0.0 0.0 0.00 0.00 0.00 10 988.7
20260507061012 48 0 0.0 0.0 0.00 0.00 0.00 10 988.7
20260507060506 48 0 0.0 0.0 0.00 0.00 0.00 10 988.6
20260507060002 47 0 0.0 0.0 0.00 0.00 0.00 10 988.6
20260507055458 47 0 0.0 0.0 0.00 0.00 0.00 10 988.5
20260507054954 47 0 0.0 0.0 0.00 0.00 0.00 10 988.5
20260507054452 47 0 0.0 0.0 0.00 0.00 0.00 10 988.5
20260507053946 47 0 0.0 0.0 0.00 0.00 0.00 10 988.4
20260507053442 47 0 0.0 0.0 0.00 0.00 0.00 10 988.4
20260507052938 47 0 0.0 0.0 0.00 0.00 0.00 10 988.3
20260507052434 47 0 0.0 0.0 0.00 0.00 0.00 10 988.3
20260507051932 47 0 0.0 0.0 0.00 0.00 0.00 10 988.3
20260507051426 47 0 0.0 0.0 0.00 0.00 0.00 10 988.1
20260507050922 47 0 0.0 0.0 0.00 0.00 0.00 10 988.1
20260507050418 47 0 0.0 0.0 0.00 0.00 0.00 10 988.0
20260507045914 46 0 0.0 0.0 0.00 0.00 0.00 10 987.9
20260507045412 46 0 0.0 0.0 0.00 0.00 0.00 10 987.9
20260507044906 46 0 0.0 0.0 0.00 0.00 0.00 10 987.8
20260507044402 46 0 0.0 0.0 0.00 0.00 0.00 10 987.8
20260507043858 46 0 0.0 0.0 0.00 0.00 0.00 10 987.8
20260507043355 46 0 0.0 0.0 0.00 0.00 0.00 10 987.7
20260507042852 45 0 0.0 0.0 0.00 0.00 0.00 10 987.6
20260507042347 45 0 0.0 0.0 0.00 0.00 0.00 10 987.6
20260507041843 45 0 0.0 0.0 0.00 0.00 0.00 10 987.5
20260507041339 45 0 0.0 0.0 0.00 0.00 0.00 10 987.5
20260507040835 46 0 0.0 0.0 0.00 0.00 0.00 10 987.4
20260507040332 45 0 0.0 0.0 0.00 0.00 0.00 10 987.5
20260507035827 45 0 0.0 0.0 0.00 0.00 0.00 10 987.4
20260507035323 45 0 0.0 0.0 0.00 0.00 0.00 10 987.4
20260507034819 45 0 0.0 0.0 0.00 0.00 0.00 10 987.4
20260507034315 45 0 0.0 0.0 0.00 0.00 0.00 10 987.3
20260507033812 45 0 0.0 0.0 0.00 0.00 0.00 10 987.2
20260507033307 45 0 0.0 0.0 0.00 0.00 0.00 10 987.2
20260507032803 45 0 0.0 0.0 0.00 0.00 0.00 10 987.2
20260507032259 45 0 0.0 0.0 0.00 0.00 0.00 10 987.2
20260507031755 45 0 0.0 0.0 0.00 0.00 0.00 10 987.1
20260507031252 45 0 0.0 0.0 0.00 0.00 0.00 10 987.1
20260507030747 45 0 0.0 0.0 0.00 0.00 0.00 10 987.1
20260507030243 45 0 0.0 0.0 0.00 0.00 0.00 10 987.1
20260507025739 45 0 0.0 0.0 0.00 0.00 0.00 10 987.1
20260507024732 44 0 0.0 0.0 0.00 0.00 0.00 10 987.1
20260507024227 45 0 0.0 0.0 0.00 0.00 0.00 10 987.1
20260507023723 45 0 0.0 0.0 0.00 0.00 0.00 10 987.0
20260507023219 45 0 0.0 0.0 0.00 0.00 0.00 10 987.0
20260507022212 45 0 0.0 0.0 0.00 0.00 0.00 10 987.0
20260507021707 44 0 0.0 0.0 0.00 0.00 0.00 10 986.9
20260507021203 44 0 0.0 0.0 0.00 0.00 0.00 10 986.8
20260507020659 44 0 0.0 0.0 0.00 0.00 0.00 10 986.9
20260507020155 44 0 0.0 0.0 0.00 0.00 0.00 10 986.8
20260507015652 45 0 0.0 0.0 0.00 0.00 0.00 10 986.8
20260507015147 45 0 0.0 0.0 0.00 0.00 0.00 10 986.8
20260507014643 44 0 0.0 0.0 0.00 0.00 0.00 10 986.8
20260507014140 44 0 0.0 0.0 0.00 0.00 0.00 10 986.8
20260507013636 43 0 0.0 0.0 0.00 0.00 0.00 10 986.8
20260507013132 44 0 0.0 0.0 0.00 0.00 0.00 10 986.7
20260507012628 43 0 0.0 0.0 0.00 0.00 0.00 10 986.6
20260507012124 43 0 0.0 0.0 0.00 0.00 0.00 10 986.6
20260507011620 43 0 0.0 0.0 0.00 0.00 0.00 10 986.7
20260507011116 43 0 0.0 0.0 0.00 0.00 0.00 10 986.6
20260507010612 44 0 0.0 0.0 0.00 0.00 0.00 10 986.6
20260507010108 43 0 0.0 0.0 0.00 0.00 0.00 10 986.6
20260507005604 43 0 0.0 0.0 0.00 0.00 0.00 10 986.7
20260507005100 43 0 0.0 0.0 0.00 0.00 0.00 10 986.8
20260507004556 43 0 0.0 0.0 0.00 0.00 0.00 10 986.7
20260507004052 43 0 0.0 0.0 0.00 0.00 0.00 10 986.7
20260507003548 42 0 0.0 0.0 0.00 0.00 0.00 10 986.6
20260507003044 42 0 0.0 0.0 0.00 0.00 0.00 10 986.5
20260507002540 43 0 0.0 0.0 0.00 0.00 0.00 10 986.5
20260507002036 43 0 0.0 0.0 0.00 0.00 0.00 10 986.5
20260507001532 43 0 0.0 0.0 0.00 0.00 0.00 10 986.5
20260507001028 42 0 0.0 0.0 0.00 0.00 0.00 10 986.5
20260507000524 43 0 0.0 0.0 0.00 0.00 0.00 10 986.4
20260507000020 43 0 0.0 0.0 0.00 0.00 0.00 10 986.4
20260506235516 43 0 0.0 0.0 0.00 0.00 0.00 10 986.5
20260506235012 43 0 0.0 0.0 0.00 0.00 0.00 10 986.5
20260506234508 43 0 0.0 0.0 0.00 0.00 0.00 10 986.4
20260506234004 43 0 0.0 0.0 0.00 0.00 0.00 10 986.5
20260506233500 44 0 0.0 0.0 0.00 0.00 0.00 10 986.5
20260506232956 43 0 0.0 0.0 0.00 0.00 0.00 10 986.4
20260506232452 44 0 0.0 0.0 0.00 0.00 0.00 10 986.6
20260506231948 44 0 0.0 0.0 0.00 0.00 0.00 10 986.6
20260506231444 44 0 0.0 0.0 0.00 0.00 0.00 10 986.6
20260506230940 44 0 0.0 0.0 0.00 0.00 0.00 10 986.6
20260506230436 44 0 0.0 0.0 0.00 0.00 0.00 10 986.5
20260506225933 44 0 0.0 0.0 0.00 0.00 0.00 10 986.5
20260506225429 45 0 0.0 0.0 0.00 0.00 0.00 10 986.5
20260506224925 45 0 0.0 0.0 0.00 0.00 0.00 10 986.6
20260506224421 45 0 0.0 0.0 0.00 0.00 0.00 10 986.6
20260506224001 45 0 0.0 0.0 0.00 0.00 0.00 10 986.6
20260506223413 45 0 0.0 0.0 0.00 0.00 0.00 10 986.5
20260506222909 45 0 0.0 0.0 0.00 0.00 0.00 10 986.4
20260506222405 45 0 0.0 0.0 0.00 0.00 0.00 10 986.4
20260506221901 46 0 0.0 0.0 0.00 0.00 0.00 10 986.3
20260506221357 46 0 0.0 0.0 0.00 0.00 0.00 10 986.1
20260506220853 46 0 0.0 0.0 0.00 0.00 0.00 10 986.2
20260506220349 46 0 0.0 0.0 0.00 0.00 0.00 10 986.1
20260506215845 46 0 0.0 0.0 0.00 0.00 0.00 10 986.1
20260506215341 46 0 0.0 0.0 0.00 0.00 0.00 10 986.1
20260506214837 46 0 0.0 0.0 0.00 0.00 0.00 10 986.0
20260506214333 47 0 0.0 0.0 0.00 0.00 0.00 10 985.9
20260506213832 47 0 0.0 0.0 0.00 0.00 0.00 10 985.9
20260506213325 47 0 0.0 0.0 0.00 0.00 0.00 10 985.9
20260506212821 47 0 0.0 0.0 0.00 0.00 0.00 10 985.9
20260506212317 47 0 0.0 0.0 0.00 0.00 0.00 10 985.8
20260506211813 47 0 0.0 0.0 0.00 0.00 0.00 10 985.8
20260506211312 47 0 0.0 0.0 0.00 0.00 0.00 10 985.9
20260506210805 48 0 0.0 0.0 0.00 0.00 0.00 10 985.8
20260506210301 47 0 0.0 0.0 0.00 0.00 0.00 10 985.8
20260506205757 48 0 0.0 0.0 0.00 0.00 0.00 10 985.9
20260506205253 48 0 0.0 0.0 0.00 0.00 0.00 10 985.9
20260506204752 48 0 0.0 0.0 0.00 0.00 0.00 10 985.9
20260506204245 48 0 0.0 0.0 0.00 0.00 0.00 10 985.8
20260506203741 48 0 0.0 0.0 0.00 0.00 0.00 10 985.9
20260506203237 48 0 0.0 0.0 0.00 0.00 0.00 10 985.9
20260506202733 48 0 0.0 0.0 0.00 0.00 0.00 10 985.8
20260506202232 48 0 0.0 0.0 0.00 0.00 0.00 10 985.7
20260506201725 49 0 0.0 0.0 0.00 0.00 0.00 10 985.7
20260506201221 49 0 0.0 0.0 0.00 0.00 0.00 10 985.6
20260506200718 49 0 0.0 0.0 0.00 0.00 0.00 10 985.7
20260506200214 49 0 0.0 0.0 0.00 0.00 0.00 10 985.7
20260506195712 49 0 0.0 0.0 0.00 0.00 0.00 10 985.7
20260506195206 49 0 0.0 0.0 0.00 0.00 0.00 10 985.6
20260506194702 49 0 0.0 0.0 0.00 0.00 0.00 10 985.4
20260506194158 49 0 0.0 0.0 0.00 0.00 0.00 10 985.5
20260506193654 49 0 0.0 0.0 0.00 0.00 0.00 10 985.3
20260506193152 50 0 0.0 0.0 0.00 0.00 0.00 10 985.3
20260506192646 50 0 0.0 0.0 0.00 0.00 0.00 10 985.3
20260506192142 50 0 0.0 0.0 0.00 0.00 0.00 10 985.1
20260506191638 50 0 0.0 0.0 0.00 0.00 0.00 10 985.0
20260506191134 50 0 0.0 0.0 0.00 0.00 0.00 10 984.9
20260506190632 50 0 0.0 0.0 0.00 0.00 0.00 10 984.9
20260506190126 50 0 0.0 0.0 0.00 0.00 0.00 10 984.9
20260506185622 50 0 0.0 0.0 0.00 0.00 0.00 10 984.9
20260506185118 50 0 0.0 0.0 0.00 0.00 0.00 10 984.9
20260506184614 50 0 0.0 0.0 0.00 0.00 0.00 10 984.7
20260506184112 50 0 0.0 0.0 0.00 0.00 0.00 10 984.7
20260506183606 50 0 0.0 0.0 0.00 0.00 0.00 10 984.7
20260506182558 50 0 0.0 0.0 0.00 0.00 0.00 10 984.7
20260506182054 51 0 0.0 0.0 0.00 0.00 0.00 10 984.5
20260506181552 51 0 0.0 0.0 0.00 0.00 0.00 10 984.4
20260506181046 51 0 0.0 0.0 0.00 0.00 0.00 10 984.4
20260506180542 51 0 0.0 0.0 0.00 0.00 0.00 10 984.5
20260506180038 51 0 0.0 0.0 0.00 0.00 0.00 10 984.4
20260506175534 52 0 0.0 0.0 0.00 0.00 0.00 10 984.2
20260506175032 52 0 0.0 0.0 0.00 0.00 0.00 10 984.3
20260506174526 52 0 0.0 0.0 0.00 0.00 0.00 10 984.3
20260506174022 52 0 0.0 0.0 0.00 0.00 0.00 10 984.1
20260506173518 52 0 0.0 0.0 0.00 0.00 0.00 10 984.0
20260506173014 52 0 0.0 0.0 0.00 0.00 0.00 10 983.9
20260506172512 52 0 0.0 0.0 0.00 0.00 0.00 10 983.9
20260506172006 52 0 0.0 0.0 0.00 0.00 0.00 10 983.7
20260506171503 52 0 0.0 0.0 0.00 0.00 0.00 10 983.6
20260506170959 52 0 0.0 0.0 0.00 0.00 0.00 10 983.6
20260506170455 52 0 0.0 0.0 0.00 0.00 0.00 10 983.7
20260506165952 52 0 0.0 0.0 0.00 0.00 0.00 10 983.7
20260506165447 52 0 0.0 0.0 0.00 0.00 0.00 10 983.7
20260506164943 52 0 0.0 0.0 0.00 0.00 0.00 10 983.8
20260506164439 52 0 0.0 0.0 0.00 0.00 0.00 10 983.7
20260506163432 52 0 0.0 0.0 0.00 0.00 0.00 10 983.7
20260506162927 52 0 0.0 0.0 0.00 0.00 0.00 10 983.8
20260506162423 51 0 0.0 0.0 0.00 0.00 0.00 10 983.7
20260506161919 52 0 0.0 0.0 0.00 0.00 0.00 10 983.7
20260506161415 52 0 0.0 0.0 0.00 0.00 0.00 10 983.5
20260506160912 52 0 0.0 0.0 0.00 0.00 0.00 10 983.5
20260506160407 52 0 0.0 0.0 0.00 0.00 0.00 10 983.4
20260506155903 52 0 0.0 0.0 0.00 0.00 0.00 10 983.2
20260506155359 52 0 0.0 0.0 0.00 0.00 0.00 10 983.2
20260506154352 53 0 0.0 0.0 0.00 0.00 0.00 10 982.9
20260506153847 54 0 0.0 0.0 0.00 0.00 0.00 10 982.9
20260506153343 55 0 0.0 0.0 0.00 0.00 0.00 10 982.6
20260506152839 55 0 0.0 0.0 0.00 0.00 0.00 10 982.2
20260506152335 56 0 0.0 0.0 0.00 0.00 0.00 10 982.1
20260506151832 57 0 0.0 0.0 0.00 0.00 0.00 10 982.0
20260506151327 57 0 0.0 0.0 0.00 0.00 0.00 10 981.9
20260506150823 58 0 0.0 0.0 0.00 0.00 0.00 10 981.7
20260506150319 59 0 0.0 0.0 0.00 0.00 0.00 10 981.6
20260506145312 61 0 0.0 0.0 0.00 0.00 0.00 10 981.7
20260506144807 66 0 0.0 0.0 0.00 0.00 0.00 96 981.6
20260506144303 65 0 0.0 0.0 0.00 0.00 0.00 98 981.5
20260506143759 66 0 0.0 0.0 0.00 0.00 0.00 95 981.5
20260506143255 65 0 0.0 0.0 0.00 0.00 0.00 10 981.6
20260506142752 66 0 0.0 0.0 0.00 0.00 0.00 92 981.6
20260506142247 66 0 0.0 0.0 0.00 0.00 0.00 97 981.6
20260506141743 65 0 0.0 0.0 0.00 0.00 0.00 95 981.5
20260506141239 66 0 0.0 0.0 0.00 0.00 0.00 97 981.5
20260506140735 66 0 0.0 0.0 0.00 0.00 0.00 90 981.4
20260506140232 67 0 0.0 0.0 0.00 0.00 0.00 92 981.4
20260506135728 65 0 0.0 0.0 0.00 0.00 0.00 95 981.5